Weather History for Roswell, NM

Change the Weather History Date:

Tuesday, February 19, 2013

  Actual Average Record
Temperature  
Mean Temperature 43 °F 47 °F  
Max Temperature 55 °F 62 °F 84 °F (1986)
Min Temperature 31 °F 32 °F 9 °F (1905)
Degree Days  
Heating Degree Days 22 18  
Month to date heating degree days 358 386  
Since 1 July heating degree days 2271 2552  
Cooling Degree Days 0 0  
Month to date cooling degree days 0 0  
Year to date cooling degree days 0 0  
Moisture  
Dew Point 22 °F    
Average Humidity 51    
Maximum Humidity 77    
Minimum Humidity 25    
Precipitation  
Precipitation T in 0.01 in 0.57 in (1987)
Month to date precipitation T 0.28  
Year to date precipitation 0.41 0.66  
Sea Level Pressure  
Sea Level Pressure 29.95 in    
Wind  
Wind Speed 16 mph (SSE)    
Max Wind Speed 30 mph    
Max Gust Speed 37 mph    
Visibility 10 miles    
Events Rain    
T = Trace of Precipitation, MM = Missing Value Source: NWS Daily Summary

Daily Weather History Graph

Daily Weather History Graph

Search for Another Location

Airport:

Trip Planner

Search our weather history database for the weather conditions in past years. The results will help you decide how hot, cold, wet, or windy it might be!

Date:

Astronomy

Feb. 19, 2013 Rise Set
Actual Time 6:37 AM MST 5:46 PM MST
Civil Twilight 6:12 AM MST 6:12 PM MST
Nautical Twilight 5:43 AM MST 6:41 PM MST
Astronomical Twilight 5:14 AM MST 7:09 PM MST
Moon 12:29 PM MST (2/19) 2:02 AM MST (2/19)
Length of Visible Light 11h 59m
Length of Day
11h 09m
Waxing Gibbous, 68% of the Moon is Illuminated
Feb 19
Waxing Gibbous
Feb 25
Full
Mar 4
Last Quarter
Mar 11
New
Mar 19
First Quarter

Hourly Weather History & Observations

Time (MST) Temp. Windchill Dew Point Humidity Pressure Visibility Wind Dir Wind Speed Gust Speed Precip Events Conditions
12:51 AM 37.0 °F 32.4 °F 6.1 °F 28% 30.04 in 10.0 mi SW 5.8 mph - N/A   Clear
1:51 AM 39.9 °F 34.5 °F 10.9 °F 31% 30.03 in 10.0 mi SSE 8.1 mph - N/A   Clear
2:51 AM 36.0 °F 30.3 °F 10.0 °F 34% 30.03 in 10.0 mi East 6.9 mph - N/A   Clear
3:51 AM 34.0 °F - 10.0 °F 37% 30.04 in 10.0 mi Calm Calm - N/A   Clear
4:51 AM 32.0 °F 25.6 °F 12.0 °F 44% 30.04 in 10.0 mi ESE 6.9 mph - N/A   Clear
5:51 AM 32.0 °F 26.4 °F 12.9 °F 45% 30.05 in 10.0 mi SE 5.8 mph - N/A   Clear
6:51 AM 30.9 °F 27.5 °F 12.0 °F 46% 30.08 in 10.0 mi West 3.5 mph - N/A   Clear
7:51 AM 37.0 °F - 16.0 °F 42% 30.09 in 10.0 mi Calm Calm - N/A   Clear
8:51 AM 43.0 °F 36.4 °F 19.9 °F 40% 30.11 in 10.0 mi SSE 12.7 mph - N/A   Clear
9:51 AM 48.9 °F - 21.9 °F 35% 30.08 in 10.0 mi SSE 18.4 mph 25.3 mph N/A   Clear
11:51 AM 55.0 °F - 21.0 °F 27% 29.98 in 10.0 mi SSE 24.2 mph 28.8 mph N/A   Clear
12:51 PM 55.0 °F - 21.0 °F 27% 29.94 in 10.0 mi SSE 21.9 mph 31.1 mph N/A   Clear
1:51 PM 55.0 °F - 21.0 °F 27% 29.88 in 10.0 mi SSE 24.2 mph 29.9 mph N/A   Clear
2:51 PM 54.0 °F - 21.9 °F 29% 29.87 in 10.0 mi SSE 25.3 mph 29.9 mph N/A   Clear
3:51 PM 52.0 °F - 23.0 °F 32% 29.87 in 10.0 mi SSE 26.5 mph 33.4 mph N/A   Clear
5:51 PM 51.1 °F - 26.1 °F 38% 29.86 in 10.0 mi SSE 24.2 mph - N/A   Clear
6:51 PM 51.1 °F - 30.9 °F 46% 29.87 in 10.0 mi SSE 20.7 mph - N/A   Clear
8:51 PM 51.1 °F - 39.0 °F 63% 29.82 in 10.0 mi SSE 20.7 mph 24.2 mph N/A   Partly Cloudy
9:51 PM 48.9 °F - 41.0 °F 74% 29.81 in 10.0 mi SSE 23.0 mph - N/A   Mostly Cloudy
10:51 PM 48.9 °F - 39.9 °F 71% 29.79 in 10.0 mi SSE 20.7 mph 29.9 mph N/A   Mostly Cloudy
11:51 PM 44.1 °F 34.2 °F 39.9 °F 85% 29.81 in 10.0 mi SSE 28.8 mph 35.7 mph 0.00 in Rain Light Rain